Regional Weather Roundup
Issued by NWS

Home | Current Version | Previous Version | Text Only | Print | Product List | Glossary On
Versions: 1 2 3 4 5 6 7 8 9 10 11 12 13 14 15 16 17 18 19 20 21 22 23 24 25 26 27 28 29 30 31 32 33 34 35 36 37 38 39 40 41 42 43 44 45 46 47 48 49 50
000
ASUS43 KTOP 041008
RWRKS

WEATHER ROUNDUP FOR KANSAS
NATIONAL WEATHER SERVICE GOODLAND KS
500 AM CDT MON MAY 04 2015

NOTE:  "FAIR" INDICATES FEW OR NO CLOUDS BELOW 12,000 FEET WITH NO
SIGNIFICANT WEATHER AND/OR OBSTRUCTIONS TO VISIBILITY.

KSZ001>006-013>018-027>032-041>047-041100-
NORTHWEST KANSAS

CITY           SKY/WX    TMP DP  RH WIND       PRES   REMARKS
GOODLAND       LGT RAIN  53  45  74 N6        30.03R
HAYS           CLOUDY    63  46  55 N9G17     29.96R
HILL CITY      CLOUDY    59  45  59 NE13G21   29.98R
RUSSELL        CLOUDY    63  51  65 NW13      29.94R
$$

KSZ061>065-074>080-084>089-041100-
SOUTHWEST KANSAS

CITY           SKY/WX    TMP DP  RH WIND       PRES   REMARKS
DODGE CITY     LGT RAIN  61  55  81 CALM      29.96S
ELKHART          N/A     57  48  72 S10         N/A
GARDEN CITY    CLOUDY    58  55  90 E5        29.95S
GREAT BEND     CLOUDY    66  52  59 SW10      29.95R
LIBERAL        CLOUDY    61  54  77 SW6       29.95S
PRATT          CLOUDY    63  52  67 S8        29.94R
$$

KSZ066>073-081>083-090>101-041100-
SOUTHEAST KANSAS

CITY           SKY/WX    TMP DP  RH WIND       PRES   REMARKS
CHANUTE        FAIR      62  55  77 S9        29.99R
COFFEYVILLE    PTCLDY    63  56  78 S8        29.99R
HUTCHINSON     MOCLDY    59  54  83 SE5       29.94S
MEDICINE LODGE   N/A     64  56  75 SE3       29.92F
NEWTON         MOCLDY    63  52  67 SW6       29.97S
PARSONS        PTCLDY    62  57  83 S5        30.00R
WICHITA INTL   MOCLDY    60  53  77 S6        29.96R
WICHITA JABRA  PTCLDY    63  54  72 S12       29.96R
WICHITA MCCONL PTCLDY    61  54  77 SE8       29.97R
WINFIELD       PTCLDY    61  55  81 S8        29.98R
$$

KSZ007>012-019>026-033>040-048>060-102>105-041100-
NORTHEAST KANSAS

CITY           SKY/WX    TMP DP  RH WIND       PRES   REMARKS
CONCORDIA      CLOUDY    63  54  72 W9        29.89R
EMPORIA        CLOUDY    63  54  72 S15       29.94R
LAWRENCE       MOCLDY    64  54  69 CALM      29.96R
MANHATTAN      MOCLDY    67  55  65 VRB3G21   29.91R
MARYSVILLE     PTCLDY    64  55  72 SE8       29.92R
OLATHE IND     MOCLDY    65  55  70 S12       29.97R
OLATHE EXE     MOCLDY    64  56  75 S8        29.95S
SALINA         CLOUDY    65  55  70 SW12      29.93R
TOPEKA BILLARD MOCLDY    66  55  67 NE6       29.96R
TOPEKA FORBES  PTCLDY    66  54  65 CALM      29.96R
$$



USA.gov is the U.S. government's official web portal to all federal, state and local government web resources and services.